User: anonymous   Login
Location: Unspecified
(0.0000°N, 0.0000°E)
Time: 08:53:51
(UTC+00:00)
Language:

MERIDIAN 4 - Orbit

View from above orbital plane
View from above orbital plane
View from above satellite
View from above satellite

Ground track
Ground track

The orbit data is extracted from the following two-line orbital elements,

1 37398U 11018A   17177.63352948 +.00000158 +00000-0 +10000-3 0  9992
2 37398 064.5060 163.6663 6772407 265.5444 112.5548 02.00600920045034
Epoch (UTC): 26 June 2017 15:12:16
Eccentricity: 0.6772407
inclination: 64.5060°
perigee height: 2193 km
apogee height: 38164 km
right ascension of ascending node: 163.6663°
argument of perigee: 265.5444°
revolutions per day: 2.00600920
mean anomaly at epoch: 112.5548°
orbit number at epoch: 4503

The dashed part of the orbit path shows where the satellite is in the earth's shadow,  

DLR